Погода в Московском

Россия / Тюменская область     57°06′31″N   65°25′56″E
темп.,
°C
ветер,
м/с
пор.,
м/с
влажн.,
%
обл.,
%
осадки,
мм/ч
давл.,
гПа
погр.,
м
3 марта, ср
ср323:00−13ююз51291100 0.1 1004416
02:00−13ююз41093100 0.1 1002355
05:00−14ююз41093100 0.1 1002337
08:00−12ююз41093100 0.1 1000398
11:00−8ююз5989100 0.3 1000616
14:00−6ююз5989100 0.1 999665
17:00−4юз5989100 0.2 1000706
20:00−5юз31092100 0.0 1000522
4 марта, чт
чт423:00−8ююз3895100 0.1 1000189
02:00−8ююз379689 0.0 998181
05:00−8ююз359695 0.0 998122
08:00−7ююз2697100 0.1 997157
11:00−3юз3692100 0.4 996454
14:00−1юз368793 0.0 995798
17:00−3зюз478797 0.1 995724
20:00−4з5119295 0.2 997706
5 марта, пт
пт523:00−9зюз499092 0.2 998269
02:00−12ююз36930 0.0 998119
05:00−11ю4109349 0.0 997308
08:00−7ююз4994100 0.8 996627
11:00−4зюз4788100 0.9 997659
14:00−1зюз478498 0.1 9991018
17:00−2юз488698 0.2 1001840
20:00−5ююз3792100 0.0 1000171
6 марта, сб
сб623:00−5ююз2595100 0.0 1000127
02:00−6зюз2295100 0.1 99921
05:00−7зсз2295100 0.1 99937
08:00−8зсз3891100 0.0 999264
11:00−7з5108583 0.0 1002578
14:00−7з698667 0.1 1005772
17:00−8з598683 0.1 1007901
20:00−11з3109299 0.1 1008292
7 марта, вс
вс723:00−15зюз359652 0.1 101087
02:00−16з239598 0.0 100951
05:00−17зюз129499 0.0 100920
08:00−17зсз1295100 0.0 100829
11:00−12ссз2383100 0.0 1007286
14:00−8сз237597 0.0 1007570
17:00−8з138480 0.0 1008656
20:00−13юз229393 0.0 100921